Flag for Russia Weather past 2 weeks in Astrakhan, Russia

Now
68 °F

Sunny.


Feels Like: 68 °F
Forecast: 65 / 89 °F
Wind: 13 mph from East

Location: Astrakhan

Current Time: May 26, 2015 at 6:53:47 AM

Latest Report: May 26, 2015 at 6:00 AM


Visibility: 10 mi

Pressure: 29.89 "Hg

Humidity: 64%

Dew point: 55 °F

Location of AstrakhanLocation

Historic Weather in Astrakhan — Graph

°F

Astrakhan temperature yesterday

Maximum temperature yesterday: 82 °F (at 10:30 AM)
Minimum temperature yesterday: 61 °F (at 2:30 AM)
Average temperature yesterday: 72 °F

Past Weeks' High & Low Weather Summary

 TemperatureHumidityPressure
High84 °F (May 23, 12:30 PM)100% (May 14, 4:30 AM)30.15 "Hg (May 14, 4:30 AM)
Low45 °F (May 20, 3:30 AM)15% (May 20, 4:00 PM)29.80 "Hg (May 17, 2:00 PM)
Average65 °F53%29.98 "Hg
* Reported May 11 5:00 AM — May 26 5:30 AM, Astrakhan, Weather by CustomWeather, © 2015

Note: Actual official high and low records may vary slightly from our data, if they occured in-between our weather recording intervals... More about our weather records

Advertising

Astrakhan weather history for previous 24 hours

 ConditionsComfort  
Time TempWeatherWind HumidityBarometerVisibility
5:30 AM
Tue, May 26
70 °FSunny.8 mph57%29.89 "Hg10 mi
5:00 AM68 °FClear.8 mph60%29.89 "Hg10 mi
4:30 AM68 °FClear.10 mph60%29.86 "Hg10 mi
4:00 AM68 °FClear.10 mph60%29.86 "Hg10 mi
3:30 AM68 °FClear.10 mph56%29.89 "Hg10 mi
3:00 AM70 °FClear.13 mph53%29.86 "Hg10 mi
2:30 AM70 °FClear.13 mph53%29.89 "Hg10 mi
2:00 AM70 °FClear.13 mph50%29.89 "Hg10 mi
1:30 AM70 °FClear.10 mph53%29.89 "Hg10 mi
1:00 AM70 °FClear.13 mph53%29.89 "Hg10 mi
12:30 AM70 °FClear.10 mph50%29.92 "Hg10 mi
11:30 PM
Mon, May 25
72 °FClear.10 mph44%29.92 "Hg10 mi
11:00 PM72 °FPassing clouds.10 mph44%29.95 "HgN/A
10:30 PM72 °FPassing clouds.13 mph44%29.95 "HgN/A
10:00 PM72 °FPassing clouds.13 mph47%29.95 "HgN/A
9:30 PM72 °FPassing clouds.13 mph47%29.95 "HgN/A
9:00 PM72 °FPassing clouds.10 mph44%29.98 "HgN/A
8:30 PM72 °FPartly cloudy.13 mph41%29.98 "HgN/A
8:00 PM72 °FBroken clouds.8 mph41%29.98 "HgN/A
7:30 PM73 °FBroken clouds.8 mph38%29.98 "HgN/A
7:00 PM73 °FPartly sunny.8 mph38%29.98 "HgN/A
6:30 PM73 °FPartly sunny.8 mph38%29.98 "HgN/A
6:00 PM75 °FPartly sunny.10 mph36%29.98 "HgN/A
5:30 PM75 °FPartly sunny.10 mph31%29.98 "HgN/A
5:00 PM75 °FPartly sunny.8 mph31%29.98 "HgN/A
4:30 PM75 °FPartly sunny.10 mph31%29.98 "HgN/A
4:00 PM75 °FPartly sunny.10 mph34%29.98 "HgN/A
3:30 PM75 °FPartly sunny.13 mph36%29.98 "HgN/A
3:00 PM75 °FSunny.13 mph31%30.01 "Hg10 mi
2:30 PM77 °FSunny.15 mph26%30.01 "Hg10 mi
2:00 PM81 °FSunny.17 mph24%30.01 "Hg10 mi
1:30 PM81 °FSunny.17 mph23%30.01 "Hg10 mi
1:00 PM81 °FSunny.17 mph23%30.01 "Hg10 mi
12:30 PM82 °FPassing clouds.20 mph21%30.01 "HgN/A
12:00 PM81 °FSunny.17 mph26%30.01 "Hg10 mi
11:30 AM81 °FSunny.22 mph21%30.01 "Hg10 mi
11:00 AM81 °FSunny.22 mph20%30.01 "Hg10 mi
10:30 AM82 °FPassing clouds.17 mph17%30.01 "HgN/A
10:00 AM79 °FSunny.15 mph26%30.01 "Hg10 mi
9:30 AM79 °FSunny.20 mph28%30.01 "Hg10 mi
9:00 AM79 °FSunny.17 mph32%30.01 "Hg10 mi
8:30 AM77 °FSunny.17 mph36%30.01 "Hg10 mi
8:00 AM75 °FSunny.17 mph36%30.01 "Hg10 mi
7:30 AM75 °FSunny.15 mph39%30.01 "Hg10 mi
6:30 AM70 °FSunny.10 mph50%29.98 "Hg10 mi
6:00 AM66 °FSunny.8 mph60%29.98 "Hg10 mi
Weather by CustomWeather, © 2015

See weather overviewHow to use our weather pages